Погода в Путао

Мьянма     27˚22′00″N   97˚24′00″E
темп.,
°C
ветер,
м/с
пор.,
м/с
влажн.,
%
обл.,
%
осадки,
мм/ч
давл.,
гПа
погр.,
м
17 января, вс
вс1700:30+12˚з018170 0.0 101823
03:30+11˚ююз008147 0.0 101822
06:30+10˚зсз018434 0.0 101822
09:30+18˚с015264 0.0 1020322
12:30+24˚с123465 0.0 10171017
15:30+24˚сз023422 0.0 10151915
18:30+16˚зюз115912 0.0 101826
21:30+13˚з11680 0.0 102023
18 января, пн
пн1800:30+11˚зсз11710 0.0 102023
03:30+10˚з117561 0.0 101923
06:30+10˚сз117637 0.0 101924
09:30+18˚с114631 0.0 1019271
12:30+26˚ссв012816 0.0 1017700
15:30+23˚з233540 0.0 1014789
18:30+16˚ююз115960 0.0 101624
21:30+14˚з117462 0.1 101728
19 января, вт
вт1900:30+11˚зсз118931 0.4 101723
03:30+10˚з118921 0.3 101423
06:30+10˚зсз118743 0.4 101523
09:30+13˚вюв008367 1.1 1016175
12:30+14˚ююв119283 2.6 1014230
15:30+19˚св016494 0.3 1012498
18:30+13˚з129597 0.6 101446
21:30+12˚зюз019392 0.0 101623
20 января, ср
ср2000:30+12˚зсз119396 0.1 101630
03:30+11˚вюв009599 0.4 101424
06:30+11˚сз019899 1.3 101524
09:30+12˚сз1499100 2.0 1016179
12:30+21˚сз125277 2.9 1014900
15:30+17˚юв138978 1.5 1012305
18:30+13˚з019788 2.4 101523
21:30+12˚зсз11100100 2.5 101647
21 января, чт
чт2100:30+12˚з01100100 4.6 101629
03:30+11˚юз019995 1.1 101529
06:30+11˚зсз119993 1.9 101633
09:30+12˚з1198100 1.2 1017107
12:30+13˚юз0196100 3.5 1015150
15:30+19˚в015879 0.4 1013707
18:30+12˚зюз118555 0.6 101623
21:30+10˚з119469 0.0 101923